STARLINK-37255

Last updated on Sun Apr 12 2026 00:02:10 GMT+0000 (Coordinated Universal Time)

1 68554U 26070N 26101.50002315 -.01153302 41634-3 -26121-2 0 9991 2 68554 53.1580 220.2242 0000994 57.8594 134.9681 15.96911257 2657
UTC large
Height (km)
Speed (km/s)
/
Latitude / Longitude
Inclination (degrees)
Orbital Period (minutes)
Azimuth
Elevation
Range (km)
Doppler Factor

Next 0 passes for location: London (51.5072 / 0.1276)

Sorry there are no passes over London.
STARLINK-37255